Weather History for KELY - October, 2012

Change the Weather History Date:

Monday, October 22, 2012

  Actual Average Record
Temperature  
Mean Temperature 52 °F 43 °F  
Max Temperature 59 °F 60 °F 81 °F (2003)
Min Temperature 45 °F 27 °F 8 °F (1985)
Degree Days  
Heating Degree Days 13 22  
Month to date heating degree days 297 400  
Since 1 July heating degree days 462 716  
Cooling Degree Days 0 0  
Month to date cooling degree days 0 0  
Year to date cooling degree days 314 218  
Growing Degree Days 2 (Base 50)    
Moisture  
Dew Point 35 °F    
Average Humidity 54    
Maximum Humidity 71    
Minimum Humidity 36    
Precipitation  
Precipitation 0.08 in 0.03 in 0.25 in (1897)
Month to date precipitation 0.73 0.71  
Year to date precipitation 9.87 8.18  
Snow  
Snow 0.00 in 0.10 in 1.00 in (1899)
Month to date snowfall 0.0 1.9  
Since 1 July snowfall 0.0 2.3  
Since 1 September snowfall 0.0 2.3  
Snow Depth 0.00 in    
Sea Level Pressure  
Sea Level Pressure 29.60 in    
Wind  
Wind Speed 22 mph (South)    
Max Wind Speed 39 mph    
Max Gust Speed 48 mph    
Visibility 10 miles    
Events Rain    
T = Trace of Precipitation, MM = Missing Value Source: NWS Daily Summary

Daily Weather History Graph

Daily Weather History Graph

Search for Another Location

Airport or City:

Trip Planner

Search our weather history database for the weather conditions in past years. The results will help you decide how hot, cold, wet, or windy it might be!

Date:

Astronomy

Oct. 22, 2012 Rise Set
Actual Time 6:57 AM PDT 5:49 PM PDT
Civil Twilight 6:29 AM PDT 6:17 PM PDT
Nautical Twilight 5:58 AM PDT 6:48 PM PDT
Astronomical Twilight 5:27 AM PDT 7:19 PM PDT
Moon 1:58 PM PDT (10/22) No Moon Set
Length of Visible Light 11h 47m
Length of Day
10h 52m
First Quarter, 57% of the Moon is Illuminated
Oct 22
First Quarter
Oct 29
Full
Nov 6
Last Quarter
Nov 13
New
Nov 20
First Quarter

Hourly Weather History & Observations

Time (PDT) Temp. Windchill Dew Point Humidity Pressure Visibility Wind Dir Wind Speed Gust Speed Precip Events Conditions
12:53 AM 51.1 °F - 37.9 °F 61% 29.59 in 10.0 mi South 17.3 mph - N/A   Overcast
1:53 AM 51.1 °F - 37.9 °F 61% 29.57 in 10.0 mi South 15.0 mph - N/A   Mostly Cloudy
2:53 AM 50.0 °F - 39.0 °F 66% 29.57 in 10.0 mi South 15.0 mph 21.9 mph N/A   Mostly Cloudy
3:53 AM 51.1 °F - 39.0 °F 63% 29.54 in 10.0 mi SSE 18.4 mph 27.6 mph N/A   Overcast
4:53 AM 51.8 °F - 37.4 °F 58% 29.76 in 10.0 mi SSE 21.9 mph 33.4 mph N/A   Overcast
5:53 AM 50.0 °F - 37.4 °F 62% 29.74 in 10.0 mi SSE 28.8 mph 39.1 mph N/A   Scattered Clouds
6:53 AM 48.9 °F - 36.0 °F 61% 29.56 in 10.0 mi SSE 25.3 mph 35.7 mph N/A   Mostly Cloudy
7:53 AM 50.0 °F - 36.0 °F 59% 29.56 in 10.0 mi SE 19.6 mph 35.7 mph N/A   Overcast
8:53 AM 51.1 °F - 34.0 °F 52% 29.57 in 10.0 mi SE 29.9 mph 40.3 mph N/A   Mostly Cloudy
9:53 AM 51.8 °F - 33.8 °F 50% 29.77 in 10.0 mi SSE 20.7 mph 28.8 mph N/A   Mostly Cloudy
10:53 AM 54.0 °F - 32.0 °F 43% 29.57 in 10.0 mi SSW 28.8 mph 38.0 mph N/A   Mostly Cloudy
11:53 AM 57.9 °F - 33.1 °F 39% 29.55 in 10.0 mi SSW 26.5 mph 35.7 mph N/A   Scattered Clouds
12:53 PM 57.0 °F - 30.9 °F 37% 29.55 in 10.0 mi SSW 23.0 mph 35.7 mph N/A   Scattered Clouds
1:53 PM 55.9 °F - 30.9 °F 39% 29.54 in 10.0 mi South 28.8 mph 36.8 mph N/A   Overcast
2:53 PM 54.0 °F - 32.0 °F 43% 29.55 in 10.0 mi SSW 23.0 mph 35.7 mph 0.00 in Rain Light Rain
3:53 PM 53.6 °F - 33.8 °F 47% 29.73 in 10.0 mi South 25.3 mph 39.1 mph N/A Rain Light Rain
4:53 PM 52.0 °F - 34.0 °F 50% 29.52 in 10.0 mi South 24.2 mph 35.7 mph 0.00 in Rain Light Rain
5:53 PM 50.0 °F - 36.0 °F 59% 29.54 in 10.0 mi South 20.7 mph 36.8 mph 0.00 in Rain Light Rain
6:53 PM 48.9 °F - 37.0 °F 64% 29.57 in 10.0 mi SSW 18.4 mph 25.3 mph 0.00 in Rain Light Rain
7:53 PM 48.9 °F - 37.9 °F 66% 29.57 in 10.0 mi WSW 11.5 mph 31.1 mph 0.03 in Rain Light Rain
8:28 PM 48.2 °F - 35.6 °F 62% 29.73 in 10.0 mi SSW 18.4 mph 33.4 mph 0.01 in   Partly Cloudy
8:53 PM 50.0 °F - 34.0 °F 54% 29.54 in 10.0 mi SSW 24.2 mph 38.0 mph 0.01 in Rain Light Rain
9:53 PM 46.0 °F 39.9 °F 37.0 °F 71% 29.59 in 9.0 mi SW 13.8 mph 27.6 mph 0.04 in Rain Rain
10:53 PM 46.4 °F 38.5 °F 35.6 °F 66% 29.74 in 10.0 mi SSW 21.9 mph 32.2 mph N/A   Partly Cloudy
11:53 PM 46.9 °F - 34.0 °F 61% 29.56 in 10.0 mi SSW 21.9 mph 27.6 mph N/A   Clear